[[{"header":{"parameterUnit":"m.s-1","parameterCategory":1,"la1":30.2991,"la2":30.254,"lo1":-89.0895,"lo2":-89.0444,"dy":0.0017,"dx":0.0017,"nx":28,"ny":28,"refTime":"2024-10-04T03:00:00:Z","depth":0,"parameterNumber":2,"parameterNumberName":"U-component_of_WINDS"},"data":[0,0,0,0,0,0,0,0,0,0,0,0,0,0,0,0,0,0,0,0,0,0,0,0,0,0,0,0,0,0,0,0,0,0,0,0,0,0,0,0,0,0,0,0,0,0,0,0,0,0,0,0,0,0,0,0,0,0,-6.3478,-6.3477,0,-6.3387,-6.3386,-6.3385,-6.3174,-6.317,-6.3165,-6.3161,-6.3075,-6.3077,-6.3078,0,0,0,0,0,0,0,0,0,0,0,0,0,-6.3477,-6.3478,-6.3478,-6.3477,-6.3476,-6.3387,-6.3386,-6.3385,-6.3175,-6.317,-6.3164,-6.3159,-6.3074,-6.3076,-6.3078,0,0,0,0,0,0,0,0,0,0,0,0,0,-6.3441,-6.3479,-6.3478,-6.336,-6.3349,-6.3387,-6.3386,-6.3384,-6.3176,-6.317,-6.3163,-6.3157,-6.3074,-6.3076,-6.3079,-6.3227,0,0,-6.3087,-6.3088,0,0,0,0,0,0,0,0,-6.3444,-6.3442,-6.3379,-6.3368,-6.3356,-6.3285,-6.3353,-6.3332,-6.3178,-6.3242,-6.3161,-6.3154,-6.3151,-6.3146,-6.3144,-6.3222,-6.3219,-6.3087,-6.3089,-6.309,-6.3091,0,0,0,0,0,0,0,-6.3446,-6.3444,-6.3442,-6.3378,-6.3364,-6.3314,-6.3302,-6.3348,-6.3234,-6.3236,-6.322,-6.3212,-6.3143,-6.3142,-6.314,-6.3217,-6.3087,-6.3089,-6.3091,-6.3092,-6.3413,-6.3419,0,0,0,0,0,0,-6.3465,-6.3448,-6.3445,-6.3439,-6.3384,-6.332,-6.3306,-6.3315,-6.3233,-6.3214,-6.3218,-6.3203,-6.3141,-6.3138,-6.3137,-6.3303,-6.309,-6.3092,-6.3094,-6.3406,-6.3414,-6.3422,0,0,0,0,0,0,-6.3466,-6.3467,-6.3449,-6.3439,-6.3433,-6.3326,-6.3338,-6.3316,-6.3314,-6.3219,-6.3199,-6.3237,-6.3135,-6.3133,-6.3205,-6.3297,-6.3094,-6.3096,-6.3398,-6.3409,-6.3418,-6.3639,0,0,0,0,0,0,-6.3467,-6.3468,-6.3522,-6.3442,-6.3434,-6.3517,-6.3344,-6.3319,-6.3319,-6.3298,-6.3232,-6.3215,-6.313,-6.3202,-6.3208,-6.3297,-6.3098,-6.3389,-6.3403,-6.3415,-6.3623,-6.3656,-6.3684,0,0,0,0,0,-6.3467,-6.3589,-6.3525,-6.3526,-6.3498,-6.3523,-6.3519,-6.3417,-6.3327,-6.3381,-6.332,-6.3217,-6.3287,-6.3212,-6.3216,-6.3308,-6.3383,-6.3399,-6.3414,-6.3609,-6.3649,-6.3683,0,0,0,0,0,0,-6.3684,-6.3576,-6.3504,-6.3603,-6.3574,-6.3487,-6.3551,-6.3462,-6.3459,-6.344,-6.3316,-6.3303,-6.3392,-6.3357,-6.3275,-6.3447,-6.3318,-6.3336,-6.3465,-6.3502,-6.3532,-6.3538,-6.31,0,0,0,0,0,-6.3743,-6.377,-6.3675,-6.3772,-6.376,-6.366,-6.3666,-6.359,-6.3555,-6.3542,-6.3486,-6.3459,-6.3473,-6.3486,-6.3495,-6.3618,-6.36,-6.3683,-6.3714,-6.3739,-6.3755,-6.3817,-6.3852,-6.3473,-6.3473,-6.3473,0,0,-6.3866,-6.381,-6.3835,-6.3814,-6.3782,-6.3814,-6.365,-6.3691,-6.3714,-6.3549,-6.3612,-6.3572,-6.3532,-6.3631,-6.3671,-6.3604,-6.3856,-6.3759,-6.378,-6.3781,-6.3837,-6.3873,-6.3905,-6.3484,-6.3482,-6.348,0,0,-6.4105,-6.4066,-6.4141,-6.4112,-6.4065,-6.3997,-6.4017,-6.3944,-6.3909,-6.3971,-6.3848,-6.3875,-6.3905,-6.3881,-6.3873,-6.4106,-6.4011,-6.4113,-6.4271,-6.4333,-6.4363,-6.4389,-6.4471,-6.4502,-6.413,-6.413,-6.4131,0,-6.4263,-6.4304,-6.4192,-6.424,-6.4235,-6.4086,-6.4162,-6.4141,-6.4101,-6.4102,-6.4028,-6.4061,-6.4024,-6.4114,-6.4171,-6.417,-6.4189,-6.4119,-6.4367,-6.4392,-6.4414,-6.4491,-6.4523,-6.4143,-6.4141,-6.414,-6.4139,0,-6.4502,-6.4533,-6.46,-6.4562,-6.4565,-6.4628,-6.4527,-6.4544,-6.4469,-6.441,-6.4476,-6.4427,-6.4423,-6.4439,-6.4367,-6.452,-6.448,-6.4389,-6.4257,-6.4465,-6.4535,-6.4564,-6.4161,-6.4156,-6.4153,-6.415,0,0,-6.4872,-6.4772,-6.4798,-6.4779,-6.4718,-6.474,-6.4798,-6.4792,-6.4809,-6.4788,-6.4833,-6.4862,-6.4777,-6.4768,-6.4693,-6.4748,-6.4935,-6.4649,-6.4646,-6.4703,-6.51,-6.5167,-6.5203,-6.4872,-6.4878,-6.4882,-6.5103,0,-6.5095,-6.5183,-6.5085,-6.5195,-6.5223,-6.5083,-6.5133,-6.5102,-6.5049,-6.5067,-6.501,-6.5031,-6.4918,-6.4912,-6.496,-6.4902,-6.5012,-6.4885,-6.4914,-6.4916,-6.4926,-6.524,-6.5311,-6.5522,-6.5129,-6.5134,-6.5137,0,-6.5366,-6.5354,-6.5467,-6.5398,-6.5406,-6.5452,-6.5439,-6.5458,-6.5421,-6.5379,-6.5371,-6.5279,-6.5333,-6.5207,-6.5279,-6.5194,-6.5201,-6.5175,-6.5181,-6.5178,-6.5038,-6.5244,-6.5586,-6.5618,-6.518,-6.5176,-6.5173,0,-6.5623,-6.5636,-6.5705,-6.5694,-6.5616,-6.5651,-6.5621,-6.5577,-6.5581,-6.5571,-6.5572,-6.557,-6.5569,-6.5571,-6.5482,-6.5398,-6.5566,-6.5432,-6.5533,-6.5536,-6.5572,-6.5571,-6.5919,-6.5582,-6.5581,-6.5581,-6.558,0,-6.588,-6.5954,-6.5819,-6.5861,-6.5941,-6.5829,-6.5912,-6.5867,-6.583,-6.5863,-6.5744,-6.5778,-6.5659,-6.5681,-6.5613,-6.5683,-6.5685,-6.5653,-6.5633,-6.5662,-6.5666,-6.5663,-6.5645,-6.5589,-6.5587,-6.5585,-6.5584,0,-6.6179,-6.6091,-6.6157,-6.6078,-6.606,-6.6122,-6.6055,-6.6092,-6.6033,-6.6076,-6.608,-6.5987,-6.6007,-6.5919,-6.5925,-6.5879,-6.5984,-6.5941,-6.5996,-6.5982,-6.6087,-6.6078,-6.6443,-6.6485,-6.6124,-6.6127,-6.613,0,-6.6347,-6.6401,-6.6327,-6.6339,-6.6315,-6.6337,-6.6339,-6.6232,-6.624,-6.6203,-6.6245,-6.6255,-6.6256,-6.6296,-6.623,-6.6234,-6.6189,-6.6317,-6.6189,-6.6216,-6.6189,-6.6186,-6.6191,-6.6343,-6.6348,-6.6352,-6.6354,0,-6.6656,-6.661,-6.6616,-6.6609,-6.6614,-6.6604,-6.6585,-6.6603,-6.6488,-6.6504,-6.6521,-6.6523,-6.6528,-6.6539,-6.653,-6.6501,-6.641,-6.6396,-6.6419,-6.6448,-6.6476,-6.646,-6.6066,-6.6387,-6.6384,-6.6382,-6.638,-6.6378,-6.6893,-6.6933,-6.6888,-6.6899,-6.6874,-6.686,-6.6891,-6.6835,-6.6847,-6.6841,-6.6779,-6.6809,-6.6773,-6.675,-6.6731,-6.6754,-6.6694,-6.6728,-6.6736,-6.6746,-6.6763,-6.6475,-6.6753,-6.6751,-6.6751,-6.675,-6.6749,0,-6.7193,-6.7157,-6.7169,-6.7146,-6.7156,-6.7068,-6.7044,-6.7058,-6.7085,-6.7058,-6.7062,-6.7084,-6.7095,-6.7032,-6.7034,-6.7066,-6.7024,-6.707,-6.7065,-6.706,-6.6818,-6.6796,-6.7103,-6.7103,-6.7103,-6.7103,-6.7103,-6.7103,-6.735,-6.7413,-6.7363,-6.7415,-6.7378,-6.7405,-6.7399,-6.7386,-6.7363,-6.7392,-6.74,-6.7358,-6.7316,-6.7316,-6.7323,-6.7304,-6.731,-6.737,-6.7338,-6.7112,-6.7077,-6.7044,-6.7023,-6.7373,-6.7374,-6.7577,-6.7579,-6.758]},{"header":{"parameterUnit":"m.s-1","parameterCategory":1,"la1":30.2991,"la2":30.254,"lo1":-89.0895,"lo2":-89.0444,"dy":0.0017,"dx":0.0017,"nx":28,"ny":28,"refTime":"2024-10-04T03:00:00:Z","depth":0,"parameterNumber":3,"parameterNumberName":"V-component_of_WINDS"},"data":[0,0,0,0,0,0,0,0,0,0,0,0,0,0,0,0,0,0,0,0,0,0,0,0,0,0,0,0,0,0,0,0,0,0,0,0,0,0,0,0,0,0,0,0,0,0,0,0,0,0,0,0,0,0,0,0,0,0,-2.3654,-2.3656,0,-2.383,-2.3832,-2.3834,-2.3916,-2.3916,-2.3916,-2.3916,-2.4093,-2.4098,-2.4103,0,0,0,0,0,0,0,0,0,0,0,0,0,-2.3381,-2.3385,-2.3654,-2.3656,-2.3658,-2.383,-2.3832,-2.3835,-2.3916,-2.3916,-2.3916,-2.3916,-2.4092,-2.4097,-2.4103,0,0,0,0,0,0,0,0,0,0,0,0,0,-2.3522,-2.3387,-2.3653,-2.3719,-2.3727,-2.3829,-2.3832,-2.3835,-2.3916,-2.3916,-2.3916,-2.3915,-2.409,-2.4097,-2.4104,-2.4153,0,0,-2.4126,-2.4129,0,0,0,0,0,0,0,0,-2.3514,-2.3532,-2.3707,-2.3715,-2.3724,-2.3851,-2.3801,-2.3942,-2.3916,-2.3844,-2.3916,-2.3915,-2.4013,-2.4026,-2.406,-2.4161,-2.4169,-2.4127,-2.4131,-2.4134,-2.4137,0,0,0,0,0,0,0,-2.3504,-2.3525,-2.3723,-2.371,-2.372,-2.3738,-2.3758,-2.3828,-2.3927,-2.385,-2.3857,-2.3877,-2.4017,-2.4052,-2.4064,-2.4172,-2.4127,-2.4133,-2.4138,-2.4141,-2.4318,-2.4318,0,0,0,0,0,0,-2.3484,-2.3516,-2.3718,-2.3729,-2.3616,-2.3743,-2.3766,-2.381,-2.3927,-2.3944,-2.3877,-2.388,-2.404,-2.4056,-2.4071,-2.4134,-2.4134,-2.4141,-2.4145,-2.4318,-2.4318,-2.4318,0,0,0,0,0,0,-2.3478,-2.3502,-2.3711,-2.3624,-2.3652,-2.3748,-2.3798,-2.3814,-2.385,-2.3947,-2.3964,-2.3895,-2.4041,-2.4061,-2.4131,-2.4141,-2.4145,-2.4151,-2.4317,-2.4318,-2.4318,-2.4261,0,0,0,0,0,0,-2.347,-2.3499,-2.352,-2.3624,-2.3657,-2.377,-2.3799,-2.3817,-2.3862,-2.3868,-2.3969,-2.3985,-2.4042,-2.412,-2.4139,-2.4151,-2.4157,-2.4317,-2.4318,-2.4318,-2.4263,-2.426,-2.4257,0,0,0,0,0,-2.346,-2.3497,-2.3521,-2.3545,-2.3686,-2.377,-2.3789,-2.3854,-2.3863,-2.3884,-2.3945,-2.3982,-2.4137,-2.4127,-2.4148,-2.4163,-2.4317,-2.4317,-2.4318,-2.4264,-2.426,-2.4257,0,0,0,0,0,0,-2.3392,-2.3512,-2.354,-2.3612,-2.368,-2.3784,-2.3813,-2.3849,-2.3916,-2.3918,-2.3995,-2.4017,-2.408,-2.4129,-2.4115,-2.4215,-2.423,-2.4235,-2.4181,-2.4179,-2.4176,-2.4163,-2.4163,0,0,0,0,0,-2.3385,-2.3446,-2.3547,-2.3601,-2.3634,-2.3717,-2.3756,-2.3801,-2.3874,-2.3903,-2.397,-2.4039,-2.4102,-2.4143,-2.4208,-2.4269,-2.4291,-2.429,-2.4287,-2.4285,-2.4288,-2.4322,-2.4322,-2.4321,-2.4321,-2.4321,0,0,-2.3372,-2.3446,-2.3479,-2.3589,-2.3647,-2.3705,-2.3741,-2.3802,-2.3846,-2.3912,-2.3983,-2.4034,-2.4115,-2.418,-2.4213,-2.4223,-2.4293,-2.4286,-2.4283,-2.4288,-2.4322,-2.4322,-2.4322,-2.4322,-2.4321,-2.4321,0,0,-2.3379,-2.3441,-2.3492,-2.3549,-2.3636,-2.369,-2.3702,-2.3799,-2.3836,-2.3908,-2.3958,-2.4009,-2.4119,-2.4174,-2.4216,-2.4238,-2.4273,-2.4256,-2.4243,-2.4274,-2.4274,-2.4275,-2.4281,-2.4282,-2.426,-2.426,-2.4259,0,-2.3352,-2.3444,-2.3513,-2.3571,-2.3616,-2.3678,-2.3728,-2.378,-2.3883,-2.3912,-2.3921,-2.4058,-2.4117,-2.4195,-2.42,-2.4232,-2.4246,-2.4246,-2.4269,-2.427,-2.4271,-2.4278,-2.428,-2.4257,-2.4257,-2.4257,-2.4258,0,-2.3405,-2.3467,-2.3497,-2.3595,-2.3644,-2.3698,-2.3772,-2.3813,-2.3851,-2.3903,-2.3974,-2.4046,-2.4125,-2.4147,-2.4186,-2.4229,-2.4232,-2.4254,-2.4271,-2.4268,-2.4275,-2.4278,-2.4253,-2.4254,-2.4255,-2.4255,0,0,-2.3377,-2.351,-2.3519,-2.3563,-2.3662,-2.371,-2.3764,-2.3842,-2.3874,-2.3942,-2.3988,-2.4077,-2.4097,-2.4144,-2.4189,-2.4217,-2.4226,-2.4235,-2.4238,-2.423,-2.4276,-2.4259,-2.4261,-2.425,-2.4251,-2.4251,-2.4269,0,-2.3396,-2.3499,-2.356,-2.3637,-2.3694,-2.3751,-2.3798,-2.3862,-2.3911,-2.3965,-2.4019,-2.408,-2.4102,-2.4131,-2.4161,-2.4219,-2.4237,-2.4219,-2.4292,-2.4294,-2.427,-2.4266,-2.4249,-2.4262,-2.4273,-2.4273,-2.4274,0,-2.3434,-2.35,-2.3582,-2.3671,-2.3697,-2.3738,-2.3812,-2.3863,-2.3935,-2.3969,-2.402,-2.4064,-2.4121,-2.4132,-2.421,-2.4196,-2.4229,-2.4261,-2.4263,-2.4273,-2.4284,-2.4274,-2.4268,-2.427,-2.4279,-2.4279,-2.4278,0,-2.3403,-2.3512,-2.3575,-2.3611,-2.3717,-2.3744,-2.3789,-2.3861,-2.3902,-2.3965,-2.3992,-2.4061,-2.4099,-2.415,-2.4211,-2.4213,-2.4282,-2.4298,-2.431,-2.4308,-2.4323,-2.4321,-2.4321,-2.4344,-2.4344,-2.4344,-2.4344,0,-2.3419,-2.3466,-2.3562,-2.3601,-2.3654,-2.3723,-2.3773,-2.3822,-2.3885,-2.3932,-2.3985,-2.4028,-2.4106,-2.4157,-2.4204,-2.426,-2.4277,-2.4304,-2.4316,-2.43,-2.4296,-2.4323,-2.4323,-2.4344,-2.4344,-2.4344,-2.4344,0,-2.3395,-2.3461,-2.3533,-2.3626,-2.365,-2.3685,-2.3764,-2.3802,-2.3852,-2.3911,-2.3929,-2.4008,-2.407,-2.4135,-2.4221,-2.4252,-2.4306,-2.4323,-2.4282,-2.4289,-2.4296,-2.4294,-2.4314,-2.4319,-2.4338,-2.4337,-2.4337,0,-2.3401,-2.3438,-2.3535,-2.357,-2.3614,-2.3671,-2.3713,-2.378,-2.3821,-2.3903,-2.393,-2.3997,-2.4054,-2.4151,-2.4215,-2.4279,-2.4298,-2.43,-2.4308,-2.4289,-2.4297,-2.4294,-2.4297,-2.4298,-2.4297,-2.4297,-2.4296,0,-2.3403,-2.3433,-2.3492,-2.3561,-2.361,-2.3667,-2.3727,-2.3752,-2.383,-2.3873,-2.3938,-2.3982,-2.4068,-2.4132,-2.4204,-2.4248,-2.4284,-2.4293,-2.4299,-2.4283,-2.4257,-2.4269,-2.4274,-2.4293,-2.4293,-2.4293,-2.4293,-2.4294,-2.3394,-2.3429,-2.3501,-2.3564,-2.3615,-2.3669,-2.3708,-2.3763,-2.3818,-2.3894,-2.3929,-2.3993,-2.4061,-2.416,-2.4203,-2.4253,-2.4263,-2.4272,-2.4275,-2.4276,-2.4271,-2.4248,-2.4266,-2.4266,-2.4266,-2.4267,-2.4267,0,-2.3398,-2.3447,-2.3504,-2.3585,-2.3633,-2.3663,-2.3729,-2.3767,-2.3823,-2.3883,-2.3937,-2.401,-2.4072,-2.4139,-2.4204,-2.4231,-2.4249,-2.4246,-2.4245,-2.4254,-2.4258,-2.4246,-2.423,-2.423,-2.423,-2.423,-2.423,-2.423,-2.3406,-2.3466,-2.3504,-2.3588,-2.3636,-2.37,-2.3735,-2.3783,-2.3832,-2.391,-2.3962,-2.4005,-2.4067,-2.4137,-2.4194,-2.4212,-2.4233,-2.4225,-2.4247,-2.4251,-2.4254,-2.4256,-2.4245,-2.4229,-2.4229,-2.4239,-2.4239,-2.4239]}]]